Location: Boullarre
(49.1305°N, 3.0047°E)
Time: 08:56:14
(UTC+00:00)

IGS 5A - Pass Details

Date: 03 February 2023
Orbit: 578 x 583 km, 97.5° (Epoch: 10 March)

Event Time Altitude Azimuth Distance (km) Brightness Sun altitude
Exits shadow 18:20:10 27° 87° (E) 1,124 4.3 -15.3°
Maximum altitude 18:20:56 29° 67° (ENE) 1,073 4.2 -15.4°
Drops below altitude 10° 18:24:32 10° 6° (N) 1,910 5.9 -16.0°
Sets 18:26:53 0° 356° (N) 2,814 6.9 -16.4°
